Regional Weather Roundup
Issued by NWS Little Rock, AR

Home | Current Version | Previous Version | Graphics & Text | Print | Product List | Glossary On
Versions: 1 2 3 4 5 6 7 8 9 10 11 12 13 14 15 16 17 18 19 20 21 22 23 24 25 26 27 28 29 30 31 32 33 34 35 36 37 38 39 40 41 42 43 44 45 46 47 48 49 50
000
ASUS44 KLZK 281405
RWRLZK

WEATHER ROUNDUP FOR ARKANSAS
NATIONAL WEATHER SERVICE LITTLE ROCK AR
900 AM CDT MON JUL 28 2014

NOTE: "FAIR" INDICATES FEW OR NO CLOUDS BELOW 12,000 FEET WITH NO
SIGNIFICANT WEATHER AND/OR OBSTRUCTIONS TO VISIBILITY.

ARZ001-003-010-029-281500-
NORTHWEST ARKANSAS

CITY           SKY/WX    TMP DP  RH WIND       PRES   REMARKS
FAYETTEVILLE   SUNNY     71  58  63 NE3       30.19S
FORT SMITH     SUNNY     79  62  56 NE9       30.16R
HARRISON       SUNNY     70  59  68 N6        30.19R
BENTONVILLE    SUNNY     70  57  64 NE10      30.20S
ROGERS         SUNNY     70  58  65 N9        30.21R
SILOAM SPGS    SUNNY     72  55  56 NE7       30.21R
HIGHFILL       SUNNY     71  59  65 NE8       30.20R
SPRINGDALE     MOSUNNY   72  57  60 NE12      30.21R
$$

ARZ004-005-016-281500-
NORTH CENTRAL ARKANSAS

CITY           SKY/WX    TMP DP  RH WIND       PRES   REMARKS
BATESVILLE     SUNNY     73  63  68 NW7       30.13R
FLIPPIN        SUNNY     72  61  68 N8        30.16R
MTN HOME       SUNNY     71  60  68 N5        30.15R
$$

ARZ040-041-281500-
WEST CENTRAL ARKANSAS

CITY           SKY/WX    TMP DP  RH WIND       PRES   REMARKS
MENA           MOSUNNY   81  66  61 CALM      30.17R
MOUNT IDA      SUNNY     79  65  62 CALM      30.14R
$$

ARZ009-017-025-026-028-281500-
NORTHEAST ARKANSAS

CITY           SKY/WX    TMP DP  RH WIND       PRES   REMARKS
JONESBORO      SUNNY     74  61  63 N8        30.10R
NEWPORT        SUNNY     76  64  66 N14       30.12R
WALNUT RIDGE   SUNNY     73  61  64 NW8       30.11R
BLYTHEVILLE    SUNNY     75  65  70 N10       30.09R
NW BLYTHEVILLE SUNNY     75  63  64 N8        30.08R
$$

ARZ022-023-033-042-044-281500-
CENTRAL ARKANSAS

CITY           SKY/WX    TMP DP  RH WIND       PRES   REMARKS
LITTLE ROCK    MOSUNNY   79  60  52 NE10      30.13R
N LITTLE ROCK  MOSUNNY   78  66  66 NE9       30.13R
JACKSONVILLE   SUNNY     78  64  61 N7        30.13R
SEARCY         SUNNY     76  63  64 N9        30.13R
HOT SPRINGS    SUNNY     79  61  53 NE8       30.15R
RUSSELLVILLE   SUNNY     79  62  56 N8        30.15R
CLINTON        FAIR      75  63  64 NW9       30.15R
$$

ARZ036-281500-
EAST ARKANSAS

CITY           SKY/WX    TMP DP  RH WIND       PRES   REMARKS
WEST MEMPHIS   SUNNY     77  65  66 VRB6      30.08R
$$

ARZ050-053-066-070-073-281500-
SOUTHWEST ARKANSAS

CITY           SKY/WX    TMP DP  RH WIND       PRES   REMARKS
ARKADELPHIA    FAIR      80  68  67 CALM      30.14R
CAMDEN         MOSUNNY   82  66  57 NE7       30.12S HX  85
TEXARKANA      CLOUDY    80  72  76 E7        30.13R
EL DORADO      PTSUNNY   83  71  67 N6        30.12R HX  87
DE QUEEN       CLOUDY    79  71  76 CALM      30.12R
$$

ARZ056-057-069-281500-
SOUTHEAST ARKANSAS

CITY           SKY/WX    TMP DP  RH WIND       PRES   REMARKS
PINE BLUFF     MOSUNNY   78  65  63 N8        30.13R
STUTTGART      SUNNY     77  64  65 N7        30.12R
MONTICELLO     PTSUNNY   81  66  60 VRB5      30.10R

$$





USA.gov is the U.S. government's official web portal to all federal, state and local government web resources and services.